Total_Precipitation_Accumulation
0.00 0.08 0.11 0.23 0.14 0.10 0.03 0.04 0.02 0.19 0.04 0.02 0.03 0.05 0.17 0.24 0.08 0.05 0.07 0.07 0.11 0.21 0.14 0.11 0.17 0.09 0.11 0.13 0.11 0.13 0.23 1.12 1.45 2.16 2.51 2.54 1.36 0.67 1.14 0.64 1.02 1.04 1.02 1.08 1.05 1.29 1.77 2.02 2.20 1.30 0.82 0.83 1.06 1.92 3.17 4.16 4.28 3.54 4.10 3.78 2.80 3.02 3.26 2.54 2.62 2.03 2.10 1.66 1.92 1.79 1.62 1.68 1.91 1.74 1.91 1.62 2.89 1.80 1.78 2.25 2.04 1.70 2.00 3.06 2.12 2.20
0.02 0.08 0.08 0.08 0.05 0.03 0.02 0.02 0.02 0.03 0.07 0.13 0.06 0.13 0.12 0.09 0.18 0.07 0.09 0.00 0.03 0.20 0.37 0.15 0.11 0.10 0.11 0.14 0.14 0.23 0.16 0.61 0.47 0.60 0.60 1.04 1.18 1.06 0.98 0.89 0.54 1.30 2.02 1.20 0.80 1.22 1.00 1.42 1.26 1.57 1.56 1.29 1.46 2.26 3.71 3.49 3.93 3.70 3.96 4.87 4.00 3.38 3.48 2.66 2.40 1.85 2.25 1.76 1.81 1.87 2.24 1.98 1.47 2.05 2.21 2.07 1.41 1.98 2.11 2.24 1.55 1.93 1.86 2.15 2.02 1.67
0.02 0.25 0.02 0.05 0.03 0.01 0.01 0.03 0.02 0.05 0.02 0.06 0.10 0.07 0.29 0.21 0.07 0.02 0.06 0.07 0.11 0.26 0.17 0.17 0.21 0.28 0.21 0.19 0.14 0.15 0.12 0.20 0.14 0.10 0.17 0.50 0.67 0.68 0.61 0.69 1.36 1.70 1.17 1.02 0.60 0.66 1.08 1.04 1.01 1.51 1.38 1.53 2.18 3.03 2.59 2.93 3.87 4.02 3.21 3.98 4.11 5.06 3.96 2.34 1.79 1.63 1.43 1.35 2.57 2.96 2.23 1.55 2.21 2.51 2.32 2.02 2.35 2.66 2.50 3.09 2.57 2.28 1.56 1.88 2.10 1.61
0.23 0.07 0.01 0.01 0.03 0.01 0.01 0.00 0.00 0.03 0.06 0.13 0.08 0.22 0.32 0.11 0.31 0.35 0.15 0.05 0.09 0.12 0.09 0.06 0.23 0.38 0.11 0.15 0.10 0.19 0.21 0.19 0.14 0.15 0.27 0.87 0.94 0.59 0.82 0.63 0.97 0.81 0.74 1.36 1.04 0.79 0.94 1.38 1.92 1.23 1.82 1.65 2.55 3.56 3.25 2.58 2.78 3.03 3.24 3.63 2.89 3.94 2.90 2.47 2.22 2.00 2.20 1.21 2.57 1.76 2.01 3.25 2.30 2.35 2.65 3.37 3.09 2.51 2.15 2.28 2.19 2.31 1.26 1.12 1.19 1.27
0.04 0.01 0.02 0.00 0.02 0.05 0.05 0.02 0.08 0.10 0.14 0.08 0.11 0.12 0.09 0.12 0.09 0.05 0.19 0.13 0.05 0.01 0.00 0.04 0.18 0.44 0.65 0.40 0.26 0.23 0.43 0.88 1.11 0.98 0.60 0.60 0.46 1.29 1.62 1.33 0.92 1.21 0.74 0.96 1.41 1.52 1.78 2.02 2.53 2.26 2.35 3.36 3.63 2.97 2.76 2.81 2.92 3.34 3.79 3.56 2.57 2.89 2.65 1.93 2.07 2.09 1.99 1.98 1.88 1.77 3.10 2.74 2.79 2.90 2.87 3.07 2.65 2.02 2.34 2.03 2.01 1.96 1.14 1.25 1.44 1.21
0.07 0.01 0.00 0.02 0.01 0.00 0.00 0.02 0.03 0.01 0.07 0.08 0.11 0.15 0.09 0.04 0.03 0.01 0.02 0.22 0.37 0.36 0.12 0.34 0.51 0.70 0.61 0.25 0.25 0.32 0.35 1.10 1.81 1.40 0.47 0.84 1.01 1.29 1.73 1.25 1.94 1.89 1.12 1.19 0.99 0.92 0.66 1.19 1.30 2.50 4.02 2.92 2.46 2.45 3.75 3.28 3.84 3.78 3.45 2.31 2.17 3.11 2.88 1.99 1.64 1.58 2.15 1.82 2.51 2.77 2.26 2.94 2.08 2.16 2.28 2.39 1.87 1.71 1.60 1.54 1.27 1.40 1.34 1.64 1.35 1.28
0.01 0.00 0.01 0.02 0.01 0.01 0.01 0.05 0.02 0.07 0.13 0.16 0.16 0.01 0.02 0.02 0.01 0.04 0.02 0.24 0.44 0.77 0.45 0.05 0.41 0.89 0.48 0.67 0.57 0.45 0.47 0.36 0.47 0.75 0.46 0.33 0.90 1.09 1.16 1.02 1.50 1.26 1.03 1.18 1.35 1.27 1.08 1.61 2.03 3.37 3.13 2.27 2.37 2.36 1.59 2.84 4.07 4.20 3.86 2.15 1.74 2.10 2.73 2.45 2.48 3.08 2.92 2.17 2.27 2.22 2.58 2.57 2.23 2.31 2.06 1.63 1.38 1.46 1.49 1.22 1.34 1.77 1.77 1.66 1.30 1.07
0.00 0.00 0.00 0.01 0.06 0.02 0.03 0.15 0.00 0.03 0.16 0.39 0.02 0.03 0.00 0.00 0.01 0.08 0.06 0.19 0.19 0.03 0.06 0.10 0.31 0.67 0.85 0.68 0.47 0.48 0.32 0.53 0.51 0.37 0.72 1.12 0.83 1.47 1.35 1.07 1.23 0.98 1.21 0.98 1.41 1.70 1.58 1.79 2.35 2.35 2.21 2.15 2.58 2.75 2.12 4.17 4.49 2.20 1.96 1.72 1.49 2.15 2.99 2.78 2.36 3.52 2.40 2.33 3.26 3.05 3.00 2.26 1.81 1.43 1.70 1.32 1.04 1.32 2.06 1.69 1.32 1.57 1.28 1.02 0.93 0.71
0.00 0.01 0.02 0.03 0.01 0.07 0.14 0.04 0.02 0.01 0.10 0.11 0.00 0.00 0.00 0.00 0.02 0.07 0.12 0.14 0.17 0.36 0.83 0.20 0.26 0.47 0.58 0.48 0.84 0.93 0.69 0.99 0.77 0.53 0.72 0.62 0.64 1.26 0.88 0.68 0.78 0.70 0.53 1.05 1.30 1.39 1.42 2.04 1.87 1.41 1.60 1.42 1.87 2.35 2.98 2.64 3.36 2.96 2.67 1.75 1.67 2.98 2.91 2.35 1.51 1.46 1.97 2.22 2.91 2.52 2.58 2.63 1.93 1.70 1.75 1.49 1.75 1.42 1.84 0.99 1.08 0.99 0.96 0.95 0.85 1.24
0.02 0.00 0.00 0.00 0.01 0.12 0.02 0.01 0.01 0.01 0.09 0.03 0.00 0.00 0.02 0.00 0.00 0.07 0.19 0.26 0.26 0.33 0.38 0.19 0.25 0.51 0.56 0.75 0.92 1.38 0.73 0.90 1.05 0.99 0.39 0.33 0.31 0.46 0.54 0.64 0.53 0.71 0.70 0.49 1.08 0.62 1.23 1.75 2.65 2.17 2.21 1.78 2.32 2.11 2.34 2.93 5.07 2.86 2.51 3.57 2.89 3.27 2.72 2.12 1.44 1.86 2.53 2.43 2.32 2.54 1.74 1.75 1.65 1.44 1.54 1.28 1.04 0.91 0.95 1.11 1.19 1.18 1.32 1.12 0.97 0.87
0.08 0.00 0.00 0.01 0.02 0.01 0.00 0.00 0.00 0.01 0.02 0.00 0.00 0.08 0.02 0.09 0.10 0.04 0.06 0.20 0.33 0.35 0.39 0.21 0.11 0.25 0.88 0.69 0.43 0.88 0.58 0.25 0.38 0.54 0.41 0.42 1.10 0.83 0.78 0.71 0.47 0.62 0.65 0.62 1.11 1.22 0.91 1.21 1.40 1.62 1.63 2.03 2.38 2.78 2.51 3.27 3.91 2.00 2.20 2.70 3.18 3.54 2.92 2.45 3.11 2.75 2.95 2.66 3.69 1.47 1.39 1.44 0.99 0.88 0.91 1.62 0.93 0.76 1.63 1.31 1.22 1.92 1.91 1.80 1.27 1.10
0.05 0.06 0.04 0.01 0.01 0.01 0.00 0.02 0.01 0.00 0.00 0.01 0.07 0.16 0.09 0.28 0.12 0.20 0.37 0.16 0.53 0.56 0.28 0.11 0.15 0.14 0.67 0.59 0.34 0.20 0.18 0.21 0.19 0.27 0.28 0.36 0.36 0.55 0.80 0.36 0.38 0.55 0.69 0.81 0.83 0.96 1.19 2.38 2.33 2.53 3.02 3.20 3.58 2.65 2.19 1.73 1.73 1.59 1.34 2.40 2.45 3.58 2.93 3.26 4.12 3.59 3.89 3.25 1.85 1.90 2.13 1.38 0.91 0.78 0.67 0.94 0.70 0.64 0.78 0.50 0.88 1.26 2.54 2.04 1.89 1.08
0.08 0.10 0.03 0.01 0.01 0.01 0.04 0.02 0.11 0.01 0.02 0.04 0.05 0.06 0.55 0.77 0.37 0.60 0.45 0.46 0.37 0.49 0.26 0.09 0.09 0.39 0.54 0.47 0.38 0.29 0.27 0.21 0.12 0.16 0.24 0.31 0.44 0.51 0.67 0.42 0.57 0.55 0.97 0.95 1.53 3.29 2.46 1.98 1.97 1.98 1.88 1.87 1.73 2.41 1.98 1.68 1.33 0.88 1.88 2.11 2.92 4.16 3.30 3.29 3.40 3.36 3.03 1.90 1.69 1.24 0.87 0.78 0.60 0.81 0.97 1.28 0.69 0.84 0.99 0.91 1.11 1.07 1.40 1.27 1.04 1.16
0.18 0.05 0.00 0.04 0.02 0.03 0.01 0.06 0.06 0.15 0.03 0.09 0.15 0.24 0.40 0.69 0.36 0.12 0.44 0.21 0.45 0.28 0.08 0.11 0.08 0.37 0.34 0.59 0.26 0.60 0.24 0.62 0.30 0.17 0.52 0.85 0.68 0.33 0.57 0.58 0.85 1.51 1.81 1.98 4.38 3.09 2.87 2.18 1.00 1.70 1.95 2.70 2.64 2.16 1.65 1.47 1.07 1.41 2.37 3.23 3.04 3.62 2.30 2.25 2.75 2.66 1.95 1.50 1.29 1.53 1.11 0.77 0.88 1.23 1.37 1.29 1.04 1.42 1.53 1.33 1.48 1.22 0.94 1.13 0.89 0.94
0.45 0.35 0.09 0.07 0.34 0.02 0.02 0.01 0.02 0.14 0.05 0.08 0.02 0.04 0.68 0.47 0.47 0.35 0.35 0.39 0.29 0.56 0.27 0.14 0.21 0.18 0.69 2.24 0.52 0.36 0.31 0.10 0.20 0.22 0.23 0.27 0.55 0.89 0.65 0.70 1.19 2.98 3.24 3.74 2.14 1.13 0.81 0.78 0.98 1.03 1.68 1.75 1.56 1.69 1.24 0.93 0.77 1.01 2.76 2.94 3.63 5.23 2.64 3.02 1.71 1.85 1.70 1.79 1.91 1.48 1.60 2.02 1.02 1.26 1.04 0.61 0.77 1.03 1.27 1.62 1.40 1.63 1.46 1.06 1.05 1.07
0.17 0.37 0.21 0.01 0.04 0.02 0.03 0.01 0.00 0.00 0.04 0.07 0.07 0.06 0.13 0.44 0.12 0.48 0.61 0.23 0.54 0.54 0.31 0.14 0.22 0.61 1.26 1.31 0.51 0.28 0.32 0.17 0.19 0.30 0.37 0.45 0.46 0.54 1.42 2.03 2.33 2.09 2.09 1.45 1.02 0.55 0.71 0.78 0.59 0.40 0.68 0.92 1.42 1.58 2.57 1.67 1.98 2.21 3.36 2.60 3.31 3.96 2.37 2.16 1.89 2.12 2.17 1.54 1.85 2.19 1.48 1.58 1.40 0.71 1.26 0.71 1.11 0.90 1.06 1.16 0.98 0.77 0.88 1.30 2.12 2.01
0.14 0.57 0.02 0.06 0.01 0.03 0.00 0.00 0.00 0.00 0.43 0.23 0.03 0.23 0.19 0.06 0.09 0.15 0.12 0.11 0.11 0.16 0.19 0.03 0.25 0.46 0.45 1.13 0.64 0.61 0.47 0.48 0.26 0.27 0.19 0.47 0.82 0.93 1.72 1.74 1.48 1.39 1.47 1.18 1.77 1.78 1.30 0.81 0.66 0.57 0.99 1.05 0.70 1.71 2.01 2.37 3.23 3.00 2.42 2.03 2.25 4.09 3.62 3.44 2.79 2.76 2.25 1.45 1.07 1.71 1.72 1.38 0.79 0.72 1.05 1.49 0.92 0.62 0.50 0.76 0.96 0.79 0.62 1.19 1.64 0.98
0.36 0.83 0.04 0.02 0.09 0.02 0.01 0.00 0.00 0.00 0.02 0.14 0.18 0.17 0.12 0.14 0.22 0.24 0.62 0.37 0.17 0.54 0.18 0.13 0.26 0.62 0.23 1.29 0.90 0.83 0.90 0.57 0.40 0.34 0.27 0.37 0.70 0.98 1.39 0.95 0.73 1.42 1.36 1.20 1.69 1.86 1.97 1.59 1.48 1.65 1.24 0.90 0.87 1.62 1.55 1.62 2.65 2.76 3.38 2.91 3.62 5.05 2.42 3.82 3.36 2.44 1.94 1.81 1.34 1.71 2.22 1.63 1.38 1.15 1.15 1.09 0.49 0.34 0.53 0.60 0.98 1.09 0.83 0.85 1.41 1.51
0.14 0.53 0.17 0.01 0.01 0.03 0.00 0.02 0.06 0.00 0.00 0.12 0.21 0.10 0.17 0.69 0.51 0.21 0.23 0.46 0.39 0.33 0.38 0.30 0.19 0.31 0.42 1.19 0.70 0.86 0.49 0.55 0.51 0.34 0.26 0.38 0.73 1.07 1.28 1.20 0.94 1.18 1.03 0.99 1.14 1.44 1.60 0.85 0.72 0.60 0.77 1.00 1.15 0.87 0.71 0.88 0.68 0.99 1.83 3.43 4.61 5.01 4.44 3.20 1.90 1.71 1.53 1.29 1.72 1.20 1.62 1.84 1.26 0.91 1.04 0.83 0.72 0.50 0.48 0.39 0.57 0.71 1.15 0.87 1.46 1.26
0.18 0.43 0.39 0.05 0.04 0.15 0.04 0.06 0.48 0.14 0.01 0.04 0.01 0.08 0.17 0.17 0.42 0.66 0.47 0.69 0.67 0.70 0.34 0.60 0.28 0.82 0.51 0.72 0.33 0.41 0.29 0.42 0.46 0.47 0.43 0.53 0.48 0.52 0.50 0.51 0.58 0.76 0.91 1.05 1.15 1.05 1.51 1.54 1.80 1.61 1.00 1.04 0.91 0.83 0.74 0.56 0.69 0.60 1.15 2.03 2.44 2.32 3.13 2.77 2.34 1.53 0.72 1.20 0.81 0.95 1.26 0.95 0.91 1.11 1.34 0.98 0.92 0.87 0.81 0.66 0.58 0.77 1.05 1.86 1.67 1.59
0.49 0.26 0.67 0.16 0.07 0.05 0.44 0.04 0.34 0.17 0.32 0.19 0.11 0.17 0.26 0.24 0.32 0.20 0.63 0.33 0.64 0.55 0.53 0.48 0.54 1.01 0.83 0.36 0.48 0.30 0.59 0.53 0.40 0.35 0.45 0.58 1.00 0.81 1.28 1.20 0.94 0.51 0.50 0.81 0.99 1.02 0.78 0.70 0.97 0.69 0.83 0.82 1.24 0.84 0.68 0.67 0.80 0.74 0.89 0.94 1.05 1.01 0.87 1.05 2.70 2.45 1.70 1.05 1.48 0.94 1.01 1.50 1.80 1.66 1.39 1.27 1.07 1.21 0.80 0.92 0.72 0.92 1.75 1.39 0.92 0.94
0.51 0.44 0.52 0.42 0.26 0.23 0.30 0.04 0.10 0.14 0.27 0.41 0.28 0.41 0.40 0.63 1.00 0.89 0.86 0.18 0.36 0.47 0.54 0.38 0.56 0.85 0.70 0.30 0.92 0.68 0.41 0.87 0.67 0.71 0.72 0.83 0.73 0.97 1.05 0.77 0.76 1.10 0.88 0.65 0.85 0.65 0.86 1.45 0.98 0.69 0.61 0.72 0.59 0.77 0.85 0.60 0.74 0.72 0.65 0.75 0.86 1.44 0.99 0.81 1.69 2.39 2.45 2.69 2.02 2.24 2.55 2.47 2.25 2.34 1.81 1.15 0.96 1.03 1.27 1.68 1.97 1.21 1.19 1.53 1.98 1.90
0.39 0.81 0.55 0.49 0.30 0.88 0.23 0.09 0.08 0.16 0.18 0.27 0.11 0.52 0.53 0.34 0.28 0.66 0.66 0.62 0.23 0.35 0.17 0.59 0.43 1.08 0.72 0.39 1.35 1.21 0.59 0.55 0.69 0.61 0.59 0.73 0.82 0.88 0.92 1.04 0.56 0.69 0.71 0.51 0.69 0.73 0.88 0.75 0.75 0.30 0.47 0.36 0.18 0.31 0.50 0.50 0.87 0.75 0.64 0.70 0.66 0.63 0.60 0.41 0.57 1.08 1.98 2.06 2.38 2.38 4.05 3.40 3.61 2.57 2.02 1.31 1.24 1.01 1.26 1.81 1.00 1.15 1.24 1.19 2.47 1.58
0.55 0.57 0.67 0.42 0.18 0.19 0.21 0.17 0.11 0.23 0.60 0.26 0.12 0.27 0.37 0.51 0.44 0.43 0.63 0.69 0.59 0.57 0.46 0.59 0.32 1.15 0.52 0.61 0.90 0.95 1.11 1.76 1.25 0.71 0.64 0.52 0.38 0.80 1.21 0.94 0.82 0.38 0.42 0.32 0.48 0.42 0.62 0.95 0.46 0.29 0.36 0.42 0.24 0.40 0.41 0.68 0.94 0.55 0.65 0.81 0.90 0.84 0.85 1.44 1.91 1.33 1.52 2.05 2.12 2.32 1.74 2.24 2.07 1.84 1.54 1.77 1.54 1.62 1.49 1.62 0.90 1.20 1.76 2.46 1.48 1.18
0.89 0.78 0.55 1.20 0.77 1.08 0.59 0.45 0.61 0.32 0.24 0.32 0.35 0.32 0.32 0.27 0.19 0.30 0.41 0.41 0.48 0.34 0.52 0.75 0.91 1.30 0.84 0.49 0.77 0.63 1.09 1.78 1.53 1.27 1.18 1.11 1.37 1.54 1.19 0.75 0.63 0.99 0.80 0.86 0.57 0.44 0.69 0.84 0.42 0.38 0.48 0.46 0.49 0.78 1.10 0.77 0.98 0.61 0.80 0.94 1.04 1.00 1.38 1.79 1.27 1.26 2.15 2.28 1.88 2.06 2.77 2.50 2.36 2.57 1.58 1.34 1.34 1.21 1.18 1.53 1.71 1.58 1.68 1.55 1.46 1.63
0.77 1.10 0.76 1.27 1.49 1.50 1.39 1.48 1.37 1.05 0.55 0.32 0.20 0.30 0.23 0.18 0.47 0.57 0.59 0.54 0.53 0.40 0.47 0.72 0.78 0.85 0.77 0.44 0.53 0.42 0.53 0.71 0.93 1.26 0.85 0.63 0.79 0.90 0.75 0.82 0.69 0.90 1.16 0.97 0.60 1.17 1.42 0.54 0.51 0.64 0.68 0.73 1.11 0.63 0.58 0.74 0.49 0.69 1.22 1.17 0.82 1.12 1.40 1.07 1.90 1.85 1.68 2.30 2.34 2.42 3.39 3.20 2.52 2.39 1.89 2.58 1.74 1.39 1.66 1.92 1.85 1.87 1.49 1.86 2.98 1.53
0.94 0.77 0.94 0.90 1.12 1.74 1.16 0.82 1.00 0.73 0.69 0.55 0.54 0.38 0.26 0.20 0.20 0.49 0.59 0.84 0.67 0.58 0.51 0.60 0.77 0.95 0.88 0.82 0.54 0.56 0.63 0.95 0.69 0.61 0.52 0.74 0.65 0.56 0.57 0.64 0.66 0.91 0.68 1.11 0.78 0.88 0.79 1.04 1.16 1.35 1.63 1.40 1.01 0.99 0.87 0.46 0.43 0.54 0.50 0.54 0.88 1.67 1.04 1.78 2.20 1.62 1.82 2.14 2.24 2.31 2.81 3.96 2.94 1.97 2.04 1.61 1.47 1.70 2.10 1.62 1.72 1.47 1.90 3.08 2.37 0.89
1.11 0.79 0.67 0.85 0.70 0.79 0.61 0.73 0.58 0.61 0.75 0.54 0.44 0.38 0.23 0.26 0.34 0.55 0.46 0.76 0.72 0.84 0.68 0.82 0.83 0.68 0.85 0.67 0.58 0.62 0.69 0.76 0.68 0.73 0.51 0.52 0.43 0.47 0.45 0.41 0.38 0.37 0.59 0.39 0.44 0.58 0.80 1.72 1.96 2.26 1.92 1.83 1.43 1.11 0.96 0.91 0.71 0.47 0.37 0.28 0.69 0.83 0.93 1.50 1.70 1.72 2.15 2.24 1.75 2.02 2.46 1.85 2.55 2.54 2.99 1.93 1.66 1.73 1.82 1.70 1.54 1.82 1.42 1.37 0.90 1.03
1.23 0.92 0.69 0.90 1.25 0.54 0.54 0.34 0.41 0.66 0.50 0.60 0.60 0.53 0.61 0.49 0.43 0.42 0.45 0.41 0.60 0.66 1.19 0.85 0.90 0.70 0.72 0.66 0.62 0.65 0.67 0.82 0.59 0.58 0.60 0.46 0.43 0.41 0.43 0.41 0.39 0.41 0.44 0.38 0.37 0.61 0.71 1.37 1.30 1.24 1.39 1.17 1.59 1.15 0.81 1.04 0.66 0.72 0.54 0.59 0.74 0.65 0.78 0.64 1.05 1.13 1.73 1.67 1.85 1.35 2.03 3.08 3.27 3.07 3.27 2.97 1.82 1.82 1.85 1.80 2.29 1.79 1.27 1.48 1.76 1.33
0.89 0.82 0.94 0.85 1.03 1.20 0.83 0.36 0.32 0.55 0.70 0.36 0.33 0.38 0.36 0.49 0.59 0.51 0.34 0.24 0.38 0.46 0.45 0.52 0.44 0.54 0.70 0.67 0.54 0.74 0.65 0.59 0.52 0.35 0.37 0.42 0.32 0.24 0.41 0.30 0.32 0.27 0.35 0.40 0.71 0.74 0.81 0.89 0.82 1.20 1.25 1.29 1.20 1.03 0.74 0.49 0.65 0.64 0.68 0.52 0.55 0.92 1.08 1.06 1.01 1.13 1.72 1.77 1.66 2.05 2.39 2.61 2.72 2.99 2.82 2.69 2.66 2.70 2.07 2.18 2.20 1.87 1.32 2.09 2.22 1.06
0.71 0.82 0.65 1.19 1.55 0.98 0.76 0.40 0.43 0.61 0.57 0.62 0.34 0.34 0.32 0.32 0.35 0.45 0.47 0.51 0.43 0.50 0.42 0.55 0.36 0.59 0.70 0.52 0.93 1.02 0.67 1.29 1.04 0.70 0.61 0.64 0.61 0.46 0.46 0.41 0.26 0.23 0.22 0.43 0.53 0.99 1.19 0.69 0.64 0.58 0.89 1.04 1.20 0.96 1.33 1.70 1.00 0.98 1.47 0.80 0.48 0.71 0.66 0.74 1.22 1.38 1.64 1.47 1.08 1.53 2.01 2.50 2.70 2.50 2.17 2.38 2.33 1.88 2.28 3.06 2.17 1.74 1.91 1.90 2.34 3.68
0.88 1.26 0.61 1.21 1.47 1.17 0.63 0.45 0.45 0.67 0.55 0.51 0.52 0.50 0.41 0.40 0.56 0.57 0.69 0.63 0.75 1.13 0.90 1.04 0.65 0.71 1.12 0.67 0.60 1.14 0.70 0.44 0.64 0.55 0.39 0.42 0.84 0.76 0.63 0.49 0.63 0.60 0.43 0.56 0.60 0.88 0.59 0.51 0.60 0.67 0.56 0.76 0.87 1.08 0.90 1.05 1.12 1.41 1.19 1.02 1.05 1.51 1.94 1.37 1.44 1.47 1.95 2.18 1.71 1.55 1.41 1.35 2.00 2.38 2.93 2.96 2.48 2.64 2.41 2.21 2.62 2.03 1.83 1.72 2.01 2.35
1.03 0.66 0.76 1.22 1.63 1.25 1.24 0.64 0.70 0.59 0.67 1.15 0.96 0.64 0.54 0.61 0.45 0.43 0.43 0.46 0.64 0.87 1.26 1.41 1.08 1.04 0.96 0.84 0.72 1.02 0.68 0.55 0.49 0.54 1.09 0.90 0.65 0.63 0.68 0.36 0.17 0.14 0.18 0.19 0.55 0.76 0.58 0.69 0.72 0.58 0.50 0.87 0.84 0.74 0.89 1.24 1.11 1.16 1.60 1.68 1.46 1.34 1.99 1.95 1.66 2.32 2.14 1.72 1.75 1.42 1.83 1.76 1.69 1.92 2.13 2.23 2.58 2.89 2.89 2.65 2.62 2.63 2.29 2.07 3.03 3.08
0.59 0.80 0.72 1.36 1.72 1.21 0.92 1.18 1.11 1.18 1.29 1.30 0.99 0.61 0.64 0.78 0.53 0.54 0.48 0.50 0.44 0.53 0.94 1.21 1.39 0.98 1.01 1.05 0.86 1.14 0.87 0.79 0.73 0.62 0.46 0.70 0.89 0.53 0.50 0.53 0.36 0.26 0.24 0.22 0.36 0.75 0.67 0.66 0.46 0.47 0.49 0.48 0.73 0.71 0.83 1.01 1.18 0.97 0.94 1.28 1.38 1.53 1.57 2.01 2.17 2.05 1.52 1.10 1.54 1.77 1.68 1.65 1.74 1.78 1.92 2.38 2.62 2.65 3.05 2.95 2.93 2.74 2.84 2.69 2.64 2.38
0.74 0.53 0.97 1.06 1.06 1.03 1.26 1.22 1.22 1.51 1.26 1.40 1.14 1.06 0.71 0.50 0.36 0.42 0.38 0.48 0.46 0.37 0.40 0.49 0.60 1.02 1.39 1.10 0.96 1.15 1.07 1.11 0.90 1.30 0.95 0.75 0.80 0.90 1.07 0.75 0.91 0.73 0.45 0.40 0.41 0.61 1.19 1.27 0.74 1.01 0.48 0.69 0.62 0.63 0.48 0.57 0.80 1.02 0.82 0.76 1.42 1.09 1.29 2.70 2.46 1.79 1.35 1.14 1.60 1.55 2.17 2.28 2.72 2.46 2.28 2.28 2.21 2.44 2.32 2.60 2.43 2.58 2.61 2.72 2.55 2.64
0.35 0.35 0.73 0.74 1.05 1.06 1.27 1.72 1.44 1.39 1.20 1.70 2.01 1.18 0.70 0.44 0.44 0.51 0.47 0.47 0.48 0.51 0.43 0.49 0.41 0.49 0.82 0.99 0.98 0.68 0.66 0.84 0.88 1.17 1.08 1.58 1.57 1.80 1.18 1.63 1.37 1.13 1.48 1.52 1.47 1.15 1.16 1.03 1.36 1.18 1.42 0.96 0.92 1.15 0.51 0.54 0.48 0.79 0.82 0.63 0.84 1.06 1.13 1.65 1.80 2.09 2.03 1.31 1.21 1.59 1.97 1.85 2.50 2.66 3.04 4.10 3.94 3.68 3.73 3.32 3.04 1.88 2.35 2.83 2.75 2.39
0.65 0.59 0.88 1.06 0.80 1.15 0.95 1.24 0.92 1.32 1.23 1.11 1.63 2.02 1.35 1.33 0.90 0.85 0.88 0.72 0.73 0.58 0.50 0.57 0.47 0.42 0.53 0.58 0.63 0.69 0.72 0.57 0.75 0.96 0.96 1.23 1.30 1.28 1.48 1.28 1.44 1.15 0.98 0.79 1.19 1.44 1.34 1.29 1.89 1.93 1.26 1.38 1.13 0.90 0.77 0.44 0.42 0.58 0.59 0.54 0.56 0.66 1.22 1.16 1.12 1.11 1.21 1.45 1.98 2.14 1.73 1.35 1.51 2.20 2.34 3.08 3.66 3.95 3.74 3.97 4.07 3.42 3.06 3.47 3.40 2.61
0.42 0.65 1.14 0.82 0.97 0.66 1.25 1.09 0.72 0.97 1.31 1.38 1.29 1.68 1.43 1.12 0.73 0.72 0.68 0.82 0.79 0.77 0.53 0.54 0.52 0.54 0.59 0.55 0.68 0.67 0.57 0.74 1.25 1.16 0.97 0.95 0.95 1.12 0.98 0.99 1.02 0.71 0.94 0.96 0.69 0.70 0.81 1.13 1.29 1.23 1.19 1.22 1.15 0.65 0.72 0.64 0.57 0.47 0.46 0.74 0.76 0.60 0.63 0.61 1.00 1.03 1.32 1.47 1.63 1.91 2.09 1.70 1.53 1.91 1.85 2.08 2.07 2.37 2.36 3.04 2.82 2.93 3.03 2.93 2.53 2.09
0.45 0.49 0.82 0.46 0.90 0.43 0.80 1.01 1.09 1.04 1.25 1.30 1.39 1.16 1.26 0.81 1.00 1.05 0.60 0.89 1.05 0.84 0.96 0.83 0.70 0.66 0.68 0.77 0.93 0.81 1.05 1.13 1.19 1.36 1.57 1.32 0.99 0.90 1.02 0.84 0.78 0.67 0.62 0.52 0.66 0.76 0.67 0.65 0.44 0.59 0.60 0.55 0.51 0.59 0.53 0.60 0.36 0.38 0.42 0.61 0.68 0.67 0.70 0.79 0.77 0.97 1.36 1.57 1.47 1.41 1.60 1.63 2.11 2.39 2.55 2.21 2.14 1.73 2.34 3.31 2.89 3.42 2.40 1.78 1.65 1.87
0.59 0.73 0.53 0.56 0.34 0.35 0.75 0.85 1.31 1.05 1.49 1.44 1.16 1.09 1.17 0.80 0.90 1.05 1.32 1.50 1.50 1.56 1.74 1.52 1.11 0.75 0.73 0.80 0.83 0.88 1.08 1.64 1.63 1.59 1.26 1.18 1.29 1.45 1.24 1.25 0.86 0.80 0.71 0.55 0.44 0.52 0.56 0.40 0.22 0.22 0.23 0.17 0.17 0.38 0.26 0.38 0.62 0.36 0.23 0.27 0.63 0.52 0.54 0.63 0.53 0.56 0.74 0.92 0.86 1.08 1.35 1.42 1.83 2.19 2.54 2.57 2.47 3.36 4.03 4.60 3.31 3.70 2.82 1.87 1.62 1.72
1.58 1.19 0.33 0.63 0.47 0.44 0.51 0.83 0.65 1.12 0.84 1.16 0.93 0.75 0.77 0.93 1.23 1.63 2.44 3.08 2.18 1.87 1.81 1.71 1.36 0.93 0.98 1.24 1.12 1.09 1.02 1.18 1.16 1.12 0.99 1.04 1.01 1.32 1.10 1.14 1.05 0.90 0.63 0.55 0.50 0.39 0.36 0.39 0.35 0.27 0.19 0.14 0.09 0.09 0.11 0.18 0.37 0.43 0.37 0.42 0.32 0.27 0.42 0.47 0.67 1.03 0.90 1.15 1.23 1.23 1.45 2.71 2.89 3.70 3.64 2.40 2.46 2.66 2.17 2.28 2.55 2.46 2.10 1.84 1.94 2.10
0.80 0.61 0.62 0.41 0.34 0.48 0.51 0.87 0.94 1.36 1.49 0.84 0.78 0.80 1.40 1.07 1.83 2.26 2.41 1.97 2.14 1.75 1.83 1.70 1.31 0.99 1.01 1.06 1.13 1.17 1.01 1.15 0.83 1.13 1.11 1.25 0.93 1.24 1.71 1.34 1.24 0.81 1.02 0.70 0.38 0.29 0.25 0.25 0.31 0.38 0.36 0.30 0.26 0.23 0.10 0.11 0.21 0.34 0.24 0.32 0.25 0.23 0.25 0.31 0.49 0.54 0.83 0.68 0.93 1.06 1.15 1.26 1.37 1.52 1.35 1.52 1.62 1.30 1.16 1.54 1.52 1.66 1.90 1.91 1.73 1.66
1.08 0.95 0.71 0.51 0.56 0.47 0.53 0.97 1.59 2.00 2.61 1.35 1.34 1.43 1.44 1.78 2.32 1.81 1.69 1.44 1.52 1.48 1.11 1.28 1.20 1.47 1.16 1.70 1.61 1.45 1.04 1.02 1.07 1.28 1.00 1.05 1.08 1.01 1.06 1.35 1.36 1.07 0.83 0.87 0.91 0.73 0.67 0.29 0.21 0.30 0.37 0.39 0.41 0.35 0.20 0.18 0.27 0.21 0.15 0.21 0.22 0.19 0.20 0.53 0.66 0.46 0.60 0.81 0.77 0.68 0.82 1.13 0.87 1.00 1.16 1.37 1.08 1.28 1.42 1.48 1.43 1.62 1.42 1.15 1.29 1.33
0.77 1.42 0.83 0.87 0.77 1.62 1.20 1.35 2.11 2.05 1.68 1.49 1.70 1.95 1.94 1.58 1.73 1.64 1.59 1.92 1.75 1.27 1.28 1.07 1.23 1.09 1.16 1.34 1.55 1.62 1.90 1.67 1.76 1.14 1.04 0.97 0.87 0.94 0.81 1.21 1.44 1.33 0.67 0.60 1.29 1.56 1.31 0.99 0.59 0.42 0.50 0.38 0.78 1.26 0.97 0.83 0.53 0.30 0.18 0.19 0.16 0.15 0.28 0.53 0.22 0.27 0.32 0.28 0.40 0.58 0.40 0.59 0.72 0.60 0.69 0.84 0.90 0.97 1.16 1.09 1.22 1.63 1.65 2.71 2.24 1.73
0.58 0.99 1.01 1.47 1.02 1.46 1.51 1.41 1.71 1.13 1.21 1.77 1.65 1.58 1.29 1.24 1.47 1.41 1.49 1.46 1.62 1.73 1.53 1.25 1.26 1.26 1.32 1.25 1.11 1.09 1.87 1.95 2.22 2.11 1.91 1.86 1.42 1.21 0.93 1.10 1.35 1.19 1.06 1.16 1.11 1.56 1.18 1.20 1.40 1.86 1.61 1.09 1.03 0.72 0.85 0.70 0.55 0.61 0.49 0.43 0.24 0.23 0.27 0.67 0.79 0.75 0.65 0.37 0.68 0.79 0.83 1.24 1.05 1.14 0.85 0.74 0.91 0.84 0.92 1.24 1.44 1.34 1.26 2.16 2.34 2.19
0.55 0.45 0.44 0.47 1.00 0.74 1.32 0.99 1.09 1.12 1.16 1.18 1.29 1.57 1.52 1.41 1.35 0.96 1.05 1.24 1.24 1.47 1.68 1.92 1.52 1.19 1.39 1.75 1.50 1.41 1.47 1.91 1.98 2.01 2.06 2.10 1.97 2.18 2.01 1.92 1.79 1.83 1.78 1.23 1.06 1.77 1.77 1.33 1.71 1.82 1.51 1.80 2.03 1.35 1.22 1.53 1.56 1.21 0.74 0.44 0.40 0.34 0.38 0.33 0.58 0.35 0.42 0.61 1.07 1.55 0.91 0.75 0.61 0.86 0.83 0.90 1.25 0.95 0.80 0.90 0.88 1.05 1.18 1.52 1.79 1.79
0.40 0.20 0.48 0.43 0.52 0.55 0.91 0.69 1.37 1.14 0.98 0.99 1.24 1.32 1.38 1.17 1.17 1.36 1.43 1.07 1.18 1.23 1.44 1.62 1.48 1.20 1.11 1.03 1.26 1.67 1.78 1.51 1.56 1.83 2.50 2.75 2.62 2.52 2.60 2.52 2.43 2.46 2.25 2.48 2.10 1.74 1.64 1.90 2.19 2.27 1.97 2.04 2.14 2.32 2.24 1.56 1.38 0.92 0.68 0.44 0.34 0.44 0.60 0.73 1.05 0.98 1.01 0.82 1.22 0.94 0.89 0.93 0.50 0.28 0.16 0.15 0.29 0.48 0.52 0.63 0.93 0.81 0.99 1.08 1.47 1.56
0.73 0.19 0.39 0.36 0.29 0.33 0.73 0.78 0.59 1.05 0.82 0.94 1.47 1.66 1.45 1.06 1.02 1.02 1.03 0.72 0.82 0.84 0.91 1.20 1.25 1.18 1.17 1.22 1.48 1.62 1.66 1.23 1.37 1.50 1.33 1.86 2.66 2.56 2.76 2.69 2.55 2.03 2.24 2.17 2.35 1.29 0.91 0.58 0.93 1.02 1.30 1.37 1.41 0.87 0.59 0.57 1.06 0.66 0.94 0.78 0.69 0.92 1.36 1.52 1.68 1.65 1.77 1.51 1.36 0.98 0.51 0.41 0.27 0.17 0.15 0.15 0.22 0.34 0.35 0.45 0.48 0.67 0.85 0.80 1.36 1.69
0.37 0.14 0.33 0.33 0.41 0.48 0.39 0.40 0.50 1.07 0.82 0.87 0.81 0.68 0.82 0.96 0.70 0.79 0.77 0.75 0.84 0.84 1.22 1.13 1.25 1.46 1.43 1.63 1.45 1.50 1.37 1.48 1.55 1.37 1.08 1.64 1.95 1.99 2.34 3.39 2.72 3.13 3.46 3.62 2.51 1.75 2.08 1.25 1.08 0.94 1.33 1.04 0.68 0.69 0.91 0.67 0.63 0.94 0.98 0.89 1.32 1.24 1.86 1.62 1.36 1.04 0.69 0.60 0.63 0.57 0.49 0.42 0.31 0.35 0.29 0.42 0.35 0.37 0.25 0.39 0.55 0.38 0.46 0.46 0.53 0.58
0.21 0.51 0.45 0.24 0.24 0.27 0.71 0.79 0.52 0.97 0.66 0.75 0.77 0.67 0.93 1.14 0.54 0.54 0.64 0.47 0.62 1.00 1.22 1.50 1.63 1.55 1.45 1.28 1.52 1.75 1.53 1.53 1.52 1.68 1.39 1.33 1.76 2.01 2.24 2.04 2.49 2.99 2.72 3.23 3.30 3.30 2.91 3.21 3.07 2.65 2.15 1.83 1.56 1.83 1.46 1.10 1.06 0.68 0.77 0.90 1.09 1.55 1.30 1.30 1.36 1.43 1.41 0.88 1.05 1.03 1.07 1.26 0.82 0.65 0.48 0.59 0.94 0.43 0.32 0.21 0.34 0.39 0.42 0.64 0.48 0.38
0.50 0.43 0.56 0.43 0.52 0.51 0.58 0.47 0.78 0.69 0.69 0.75 0.83 0.59 0.66 0.74 0.66 0.80 0.40 0.37 0.24 0.84 1.04 0.98 0.82 0.29 0.46 0.80 0.83 1.35 1.55 1.72 1.40 1.04 1.14 1.30 1.67 2.35 1.77 1.86 1.99 2.42 2.30 2.50 2.75 2.96 3.04 2.42 2.42 2.40 2.30 2.07 1.48 1.60 1.65 1.59 1.63 1.23 1.37 1.68 1.57 1.33 0.98 1.03 0.75 0.42 0.40 0.55 0.67 0.59 0.81 0.73 0.59 0.69 1.08 1.19 0.79 0.52 0.63 0.42 0.43 0.50 0.35 0.43 1.13 1.00